Weather in Ordzhonikidzevskiy

Russia / Republic of Khakassia     54°52′16″N   88°54′29″E
temp.,
°C
wind,
m/s
gust,
m/s
humid.,
%
clouds,
%
prec.,
mm/h
press.,
hPa
HPBL,
m
11 may, tue
tue1101:00+2e22845 0.0 102043
04:00+1ene11922 0.0 101829
07:00+3ene1480100 0.0 1017176
10:00+9e595498 0.0 10151114
13:00+12e5837100 0.0 10141828
16:00+13ene5734100 0.0 10132215
19:00+12ne4740100 0.0 10141078
22:00+8ne2854100 0.0 1016238
12 may, wed
wed1201:00+6n2267100 0.0 101723
04:00+5nnw2270100 0.0 101722
07:00+6n1264100 0.0 101884
10:00+11ene3648100 0.0 10161403
13:00+13ene4439100 0.1 10152225
16:00+13ene4538100 0.0 10142014
19:00+12nne344279 0.0 10151843
22:00+6n22639 0.0 101724
13 may, thu
thu1301:00+4nw11675 0.0 101811
04:00+3w11734 0.0 101810
07:00+6s11637 0.0 1017106
10:00+13e024059 0.0 10151366
13:00+16n122950 0.0 10122335
16:00+16wnw2228100 0.0 10112586
19:00+13nw234097 0.0 10121924
22:00+8wsw116210 0.1 101310
14 may, fri
fri1401:00+7wsw2174100 0.1 101218
04:00+7wsw1478100 0.0 1011247
07:00+8wsw147593 0.0 1012297
10:00+8nw3576100 0.2 10121209
13:00+8wnw477196 1.6 10131381
16:00+6nw488999 0.7 10161124
19:00+5nw488199 1.6 10191052
22:00+1wnw258399 0.1 1023130
15 may, sat
sat1501:000wsw2287100 0.1 102431
04:000sw2386100 0.0 102464
07:00+4wsw4136498 0.0 1022891
10:00+6wsw71664100 0.1 1021791
13:00+7wsw61664100 0.1 1021825
16:00+10w71562100 0.4 10201055
19:00+10wsw7156794 1.3 10201056
22:00+10wsw7156983 0.0 1020864